TimeCST,TemperatureF,Dew PointF,Humidity,Sea Level PressureIn,VisibilityMPH,Wind Direction,Wind SpeedMPH,Gust SpeedMPH,PrecipitationIn,Events,Conditions,WindDirDegrees,DateUTC
12:53 AM,46.0,42.1,86,29.61,10.0,South,11.5,-,N/A,,Clear,180,2013-01-12 06:53:00
1:53 AM,46.0,42.1,86,29.62,10.0,South,11.5,-,N/A,,Clear,180,2013-01-12 07:53:00
2:53 AM,46.9,42.1,83,29.62,10.0,South,13.8,23.0,N/A,,Clear,190,2013-01-12 08:53:00
3:53 AM,46.9,42.1,83,29.63,10.0,South,12.7,-,N/A,,Clear,190,2013-01-12 09:53:00
4:53 AM,48.0,42.1,80,29.63,10.0,SSW,12.7,21.9,N/A,,Clear,200,2013-01-12 10:53:00
5:53 AM,46.9,39.0,74,29.68,10.0,SW,13.8,21.9,N/A,,Mostly Cloudy,230,2013-01-12 11:53:00
6:24 AM,42.8,37.4,81,29.69,10.0,WSW,8.1,-,N/A,,Mostly Cloudy,240,2013-01-12 12:24:00
6:53 AM,39.9,33.1,77,29.74,10.0,WSW,13.8,21.9,N/A,,Scattered Clouds,240,2013-01-12 12:53:00
7:53 AM,36.0,28.9,76,29.80,10.0,WSW,10.4,24.2,N/A,,Scattered Clouds,240,2013-01-12 13:53:00
8:53 AM,33.1,27.0,78,29.86,10.0,West,12.7,24.2,N/A,,Partly Cloudy,260,2013-01-12 14:53:00
9:53 AM,32.0,26.1,79,29.87,10.0,WSW,9.2,18.4,N/A,,Partly Cloudy,240,2013-01-12 15:53:00
10:53 AM,30.9,21.9,69,29.91,10.0,SW,12.7,20.7,N/A,,Partly Cloudy,230,2013-01-12 16:53:00
11:53 AM,30.0,19.9,66,29.89,10.0,WSW,9.2,20.7,N/A,,Clear,240,2013-01-12 17:53:00
12:53 PM,30.0,19.9,66,29.92,10.0,SW,10.4,20.7,N/A,,Clear,230,2013-01-12 18:53:00
1:53 PM,30.0,19.9,66,29.94,10.0,SW,9.2,16.1,N/A,,Clear,220,2013-01-12 19:53:00
2:53 PM,30.0,19.0,64,29.95,10.0,Variable,5.8,-,N/A,,Clear,0,2013-01-12 20:53:00
3:53 PM,28.0,18.0,66,29.97,10.0,WSW,10.4,16.1,N/A,,Scattered Clouds,240,2013-01-12 21:53:00
4:53 PM,28.0,18.0,66,29.99,10.0,Variable,5.8,-,N/A,,Mostly Cloudy,0,2013-01-12 22:53:00
5:53 PM,27.0,17.1,66,29.94,10.0,NW,4.6,-,N/A,,Overcast,310,2013-01-12 23:53:00
7:53 PM,26.1,17.1,69,30.02,10.0,Calm,Calm,-,N/A,,Overcast,0,2013-01-13 01:53:00
8:53 PM,26.1,16.0,66,30.04,10.0,West,3.5,-,N/A,,Overcast,280,2013-01-13 02:53:00
9:53 PM,24.1,16.0,71,30.00,10.0,WNW,6.9,-,N/A,,Overcast,290,2013-01-13 03:53:00
10:53 PM,23.0,15.1,72,29.98,8.0,NW,10.4,16.1,0.00,Snow,Light Snow,320,2013-01-13 04:53:00
11:53 PM,21.9,15.1,75,30.00,9.0,WNW,8.1,-,0.00,Snow,Light Snow,290,2013-01-13 05:53:00